Weather History for Mineola, TX

Change the Weather History Date:

Wednesday, April 24, 2013

  Actual Average (KTYR) Record (KTYR)
Temperature  
Mean Temperature 50 °F 67 °F  
Max Temperature 60 °F 77 °F 91 °F (1925)
Min Temperature 41 °F 57 °F 40 °F (2005)
Degree Days  
Heating Degree Days 14 1  
Month to date heating degree days 91  
Since 1 July heating degree days 2256  
Cooling Degree Days 0 3  
Month to date cooling degree days 53  
Year to date cooling degree days 86  
Moisture  
Dew Point 40 °F    
Average Humidity 71    
Maximum Humidity 93    
Minimum Humidity 42    
Precipitation  
Precipitation 0.09 in 0.13 in 4.29 in (1966)
Month to date precipitation 2.41  
Year to date precipitation 13.40  
Snow  
Snow 0.00 in - - ()
Month to date snowfall  
Since 1 July snowfall  
Snow Depth -    
Sea Level Pressure  
Sea Level Pressure 30.24 in    
Wind  
Wind Speed 10 mph (North)    
Max Wind Speed 16 mph    
Max Gust Speed 25 mph    
Visibility 10 miles    
Events Rain , Thunderstorm    
T = Trace of Precipitation, MM = Missing Value Source: NWS Daily Summary

Daily Weather History Graph

Daily Weather History Graph

Search for Another Location

Airport:

Trip Planner

Search our weather history database for the weather conditions in past years. The results will help you decide how hot, cold, wet, or windy it might be!

Date:

Astronomy

Apr. 24, 2013 Rise Set
Actual Time 6:41 AM CDT 7:58 PM CDT
Civil Twilight 6:16 AM CDT 8:24 PM CDT
Nautical Twilight 5:45 AM CDT 8:55 PM CDT
Astronomical Twilight 5:13 AM CDT 9:27 PM CDT
Moon 7:04 PM CDT (4/24) 5:42 AM CDT (4/24)
Length of Visible Light 14h 08m
Length of Day
13h 16m
Waxing Gibbous, 98% of the Moon is Illuminated
Apr 24
Waxing Gibbous
Apr 25
Full
May 2
Last Quarter
May 9
New
May 17
First Quarter

Hourly Weather History & Observations

Time (CDT) Temp. Windchill Dew Point Humidity Pressure Visibility Wind Dir Wind Speed Gust Speed Precip Events Conditions
12:15 AM 46.4 °F 40.4 °F 39.2 °F 76% 30.15 in 10.0 mi NW 13.8 mph 20.7 mph N/A   Overcast
12:35 AM 46.4 °F 40.1 °F 39.2 °F 76% 30.15 in 10.0 mi NNW 15.0 mph 23.0 mph N/A   Overcast
12:55 AM 44.6 °F 38.8 °F 39.2 °F 81% 30.16 in 10.0 mi NNW 11.5 mph 24.2 mph N/A   Overcast
1:15 AM 44.6 °F 37.8 °F 39.2 °F 81% 30.16 in 8.0 mi NNW 15.0 mph 21.9 mph N/A   Drizzle
1:35 AM 44.6 °F 37.8 °F 41.0 °F 87% 30.16 in 10.0 mi NNW 15.0 mph 18.4 mph N/A   Overcast
1:55 AM 42.8 °F 36.2 °F 39.2 °F 87% 30.14 in 10.0 mi NNW 12.7 mph - N/A   Overcast
2:15 AM 42.8 °F 35.8 °F 39.2 °F 87% 30.15 in 9.0 mi NNW 13.8 mph 19.6 mph N/A   Light Drizzle
2:35 AM 42.8 °F 36.2 °F 39.2 °F 87% 30.17 in 2.5 mi NNW 12.7 mph 19.6 mph 0.02 in Thunderstorm Thunderstorm
2:55 AM 41.0 °F 34.3 °F 39.2 °F 93% 30.16 in 2.5 mi NNW 11.5 mph - 0.09 in Rain , Thunderstorm Rain
3:15 AM 41.0 °F 35.8 °F 39.2 °F 93% 30.18 in 10.0 mi NW 8.1 mph - N/A Thunderstorm Overcast
3:35 AM 41.0 °F 35.8 °F 39.2 °F 93% 30.18 in 10.0 mi NW 8.1 mph - N/A Thunderstorm Light Drizzle
3:55 AM 41.0 °F 34.7 °F 39.2 °F 93% 30.20 in 8.0 mi NW 10.4 mph - N/A Thunderstorm Overcast
4:15 AM 41.0 °F 32.8 °F 39.2 °F 93% 30.21 in 10.0 mi NW 16.1 mph 25.3 mph N/A Rain Light Rain
4:35 AM 41.0 °F 33.1 °F 39.2 °F 93% 30.21 in 10.0 mi NW 15.0 mph 19.6 mph N/A   Overcast
4:55 AM 41.0 °F 33.1 °F 39.2 °F 93% 30.21 in 10.0 mi NNW 15.0 mph 25.3 mph N/A   Overcast
5:15 AM 41.0 °F 33.1 °F 37.4 °F 87% 30.22 in 10.0 mi NNW 15.0 mph 20.7 mph N/A   Overcast
5:35 AM 41.0 °F 33.5 °F 37.4 °F 87% 30.22 in 10.0 mi NNW 13.8 mph 24.2 mph N/A   Overcast
5:55 AM 41.0 °F 33.9 °F 37.4 °F 87% 30.23 in 10.0 mi NW 12.7 mph 19.6 mph N/A   Overcast
6:15 AM 41.0 °F 34.7 °F 37.4 °F 87% 30.23 in 10.0 mi NNW 10.4 mph 16.1 mph N/A   Overcast
6:35 AM 41.0 °F 35.2 °F 37.4 °F 87% 30.24 in 10.0 mi NW 9.2 mph - N/A   Overcast
6:55 AM 41.0 °F 35.2 °F 37.4 °F 87% 30.25 in 10.0 mi NNW 9.2 mph - N/A   Overcast
7:15 AM 41.0 °F 33.1 °F 37.4 °F 87% 30.26 in 10.0 mi NNW 15.0 mph 19.6 mph N/A   Overcast
7:35 AM 41.0 °F 34.7 °F 37.4 °F 87% 30.27 in 10.0 mi NNW 10.4 mph - N/A   Overcast
7:55 AM 41.0 °F 32.8 °F 37.4 °F 87% 30.28 in 10.0 mi North 16.1 mph 21.9 mph N/A   Overcast
8:15 AM 41.0 °F 35.8 °F 37.4 °F 87% 30.29 in 10.0 mi North 8.1 mph - N/A   Overcast
8:35 AM 42.8 °F 37.0 °F 35.6 °F 76% 30.29 in 10.0 mi North 10.4 mph - N/A   Mostly Cloudy
8:55 AM 42.8 °F 38.6 °F 37.4 °F 81% 30.29 in 10.0 mi North 6.9 mph - N/A   Mostly Cloudy
9:15 AM 44.6 °F 40.7 °F 37.4 °F 76% 30.29 in 10.0 mi North 6.9 mph - N/A   Overcast
9:35 AM 44.6 °F 39.2 °F 37.4 °F 76% 30.30 in 10.0 mi NNW 10.4 mph - N/A   Overcast
9:55 AM 44.6 °F 38.8 °F 37.4 °F 76% 30.31 in 10.0 mi North 11.5 mph - N/A   Overcast
10:15 AM 46.4 °F 41.5 °F 37.4 °F 71% 30.31 in 10.0 mi North 10.4 mph - N/A   Overcast
10:35 AM 46.4 °F 41.9 °F 37.4 °F 71% 30.31 in 10.0 mi North 9.2 mph 17.3 mph N/A   Mostly Cloudy
10:55 AM 48.2 °F - 37.4 °F 66% 30.31 in 10.0 mi NNW 9.2 mph - N/A   Mostly Cloudy
11:15 AM 50.0 °F - 37.4 °F 62% 30.30 in 10.0 mi North 6.9 mph - N/A   Mostly Cloudy
11:35 AM 48.2 °F - 37.4 °F 66% 30.30 in 10.0 mi NNW 6.9 mph - N/A   Overcast
11:55 AM 50.0 °F - 37.4 °F 62% 30.30 in 10.0 mi NNW 11.5 mph - N/A   Mostly Cloudy
12:15 PM 51.8 °F - 37.4 °F 58% 30.30 in 10.0 mi NE 5.8 mph - N/A   Partly Cloudy
12:35 PM 51.8 °F - 37.4 °F 58% 30.30 in 10.0 mi North 5.8 mph 16.1 mph N/A   Partly Cloudy
12:55 PM 53.6 °F - 39.2 °F 58% 30.29 in 10.0 mi North 5.8 mph - N/A   Partly Cloudy
1:15 PM 53.6 °F - 37.4 °F 54% 30.28 in 10.0 mi NNW 9.2 mph - N/A   Partly Cloudy
1:35 PM 55.4 °F - 37.4 °F 51% 30.27 in 10.0 mi NNE 6.9 mph - N/A   Clear
1:55 PM 55.4 °F - 37.4 °F 51% 30.26 in 10.0 mi North 9.2 mph - N/A   Clear
2:15 PM 57.2 °F - 39.2 °F 51% 30.26 in 10.0 mi NNW 9.2 mph 16.1 mph N/A   Clear
2:35 PM 57.2 °F - 37.4 °F 48% 30.26 in 10.0 mi NNE 3.5 mph - N/A   Clear
2:55 PM 57.2 °F - 39.2 °F 51% 30.25 in 10.0 mi NE 4.6 mph - N/A   Clear
3:15 PM 59.0 °F - 39.2 °F 48% 30.24 in 10.0 mi NE 8.1 mph - N/A   Clear
3:35 PM 59.0 °F - 39.2 °F 48% 30.24 in 10.0 mi NE 5.8 mph - N/A   Clear
3:55 PM 60.8 °F - 39.2 °F 45% 30.23 in 10.0 mi ENE 4.6 mph - N/A   Clear
4:15 PM 60.8 °F - 39.2 °F 45% 30.23 in 10.0 mi East 3.5 mph - N/A   Clear
4:35 PM 60.8 °F - 37.4 °F 42% 30.22 in 10.0 mi NE 4.6 mph - N/A   Clear
4:55 PM 60.8 °F - 39.2 °F 45% 30.22 in 10.0 mi North 3.5 mph - N/A   Clear
5:15 PM 60.8 °F - 39.2 °F 45% 30.22 in 10.0 mi North 6.9 mph - N/A   Clear
5:35 PM 60.8 °F - 39.2 °F 45% 30.22 in 10.0 mi ENE 3.5 mph - N/A   Clear
5:55 PM 60.8 °F - 39.2 °F 45% 30.22 in 10.0 mi NNE 3.5 mph - N/A   Clear
6:15 PM 60.8 °F - 39.2 °F 45% 30.22 in 10.0 mi Calm Calm - N/A   Clear
6:35 PM 60.8 °F - 39.2 °F 45% 30.22 in 10.0 mi Calm Calm - N/A   Clear
6:55 PM 60.8 °F - 39.2 °F 45% 30.22 in 10.0 mi NNE 3.5 mph - N/A   Clear
7:15 PM 60.8 °F - 39.2 °F 45% 30.23 in 10.0 mi Calm Calm - N/A   Clear
7:35 PM 59.0 °F - 42.8 °F 55% 30.23 in 10.0 mi Calm Calm - N/A   Clear
7:55 PM 55.4 °F - 46.4 °F 72% 30.24 in 10.0 mi Calm Calm - N/A   Clear
8:15 PM 55.4 °F - 46.4 °F 72% 30.24 in 10.0 mi Calm Calm - N/A   Mostly Cloudy
8:35 PM 55.4 °F - 48.2 °F 77% 30.25 in 10.0 mi Calm Calm - N/A   Scattered Clouds
8:55 PM 53.6 °F - 46.4 °F 77% 30.26 in 10.0 mi Calm Calm - N/A   Mostly Cloudy
10:15 PM 51.8 °F - 48.2 °F 88% 30.30 in 10.0 mi Calm Calm - N/A   Mostly Cloudy
10:35 PM 53.6 °F - 46.4 °F 77% 30.30 in 10.0 mi Calm Calm - N/A   Mostly Cloudy
10:55 PM 51.8 °F - 48.2 °F 88% 30.30 in 10.0 mi Calm Calm - N/A   Mostly Cloudy
11:15 PM 51.8 °F - 48.2 °F 88% 30.30 in 10.0 mi Calm Calm - N/A   Mostly Cloudy
11:35 PM 51.8 °F - 46.4 °F 82% 30.30 in 10.0 mi Calm Calm - N/A   Mostly Cloudy
11:55 PM 51.8 °F - 46.4 °F 82% 30.30 in 10.0 mi Calm Calm - N/A   Mostly Cloudy